SKYSAT-C8 (42990 NORAD) Tracking and Keplerian Element Data

This shows tracking and keplerian element data for the satellite.

Feedback or suggestion? Click here.




ElementValue
Catalog42990
NameSKYSAT-C8
Epoch Orbit3934
Epoch Day198.8643739
Epoch Year2018
RAAN312.4969
Inclination97.4078
Eccentricity0.0006194
Argument of Perigee27.1004
Mean Anonmoly333.0554
Mean Motion15.21366483
Decay Rate4.02E-06
L11 42990U 17068D 18198.86437390 .00000402 00000-0 21017-4 0 9994
L22 42990 97.4078 312.4969 0006194 27.1004 333.0554 15.21366483 39340

Live tracking and technical data element details for SKYSAT-C8 (NORAD 42990). SKYSAT-C8 can be tracked NOW for your location showing map with azimuth and elevation plus other details from your city location.

Track the satellite on the map from your city or location and see movement details for azimuth, elevation, latitude, longitude, range, height, and movement on the map or in text.







IsCatalogInMostPopularTable: catalog: 42990, numindb: 99
Update: records affected: 1



GetName: 42990 SKYSAT-C8

Hit Count: updated at: Fri, 20 Jul 2018 20:29:58 GMT